Location: Natural Bridges National Monument
(37.6093°N, 109.9767°W)
Time: 21:41:18
(UTC-07:00)

Amateur Radio Satellites - All Passes

Search period start: 02 March 2015 21:11
Search period end: 03 March 2015 21:11
Location: Natural Bridges National Monument, 37.6093°N, 109.9767°W

Satellite Date Start Highest point End Downlink Frequencies (MHz)
Time Altitude Azimuth
DELFI C3 02 Mar 21:16:01 21:20:01 70° 76° (ENE) 21:24:03 145.870
DOVE 4 02 Mar 21:16:30 21:21:21 39° 262° (W) 21:25:59 437.250
CINEMA 3 02 Mar 21:23:53 21:28:38 57° 260° (W) 21:33:12 145.822/145.860
Oscar 11 02 Mar 21:37:11 21:41:22 50° 261° (W) 21:45:34 145.826/435.025
CUBEBUG 2 02 Mar 21:44:04 21:48:34 60° 260° (W) 21:52:56 437.445
AAUSAT CUBESAT 2 02 Mar 21:45:31 21:48:30 19° 267° (W) 21:51:23 437.432
COMPASS 1 02 Mar 21:48:46 21:51:17 15° 269° (W) 21:53:38 437.405
ANTELSAT 02 Mar 21:48:51 21:50:12 11° 90° (E) 21:51:49 437.575/2403.000
RS-15 02 Mar 21:51:40 21:59:37 25° 105° (ESE) 22:08:07 29.354- 29.394
VERMONT LUNAR 02 Mar 22:00:46 22:04:15 75° 200° (SSW) 22:07:43 437.305
DX 1 02 Mar 22:01:26 22:05:45 56° 259° (W) 22:10:05 434.975-435.025
AISAT 02 Mar 22:05:09 22:09:35 61° 74° (ENE) 22:14:02 437.250
PHONESAT 2.4 02 Mar 22:05:10 22:08:49 73° 15° (NNE) 22:12:25 2401.200-2431.200
CUBEBUG 1 02 Mar 22:09:01 22:12:43 27° 70° (ENE) 22:16:30 437.445
VELOX 1 02 Mar 22:14:33 22:19:01 75° 76° (ENE) 22:23:32 145.980
PCSat 02 Mar 22:16:59 22:20:54 19° 313° (NW) 22:24:41 145.827
HO-68 02 Mar 22:17:37 22:20:49 13° 273° (W) 22:23:27 435.675
50 SAT 02 Mar 22:21:13 22:25:13 89° 79° (E) 22:29:13 437.505
FUNcube-1 02 Mar 22:22:31 22:26:30 32° 263° (W) 22:30:21 145.935
ZACube-1 02 Mar 22:23:53 22:27:48 31° 264° (W) 22:31:38 437.345
HUMSAT D 02 Mar 22:25:37 22:29:45 56° 260° (W) 22:33:51 437.325/437.525
NANOSAT C BR1 02 Mar 22:30:21 22:33:17 19° 93° (E) 22:36:19 145.865
ESTCUBE 1 02 Mar 22:30:45 22:35:06 52° 74° (ENE) 22:39:32 437.505/2401.250
UKube-1 02 Mar 22:31:35 22:35:19 27° 264° (W) 22:39:00 .
CUSAT 1 02 Mar 22:35:29 22:36:12 10° 92° (E) 22:37:22 437.405
SPROUT 02 Mar 22:42:05 22:44:27 15° 67° (ENE) 22:47:00 437.525
UNISAT 6 02 Mar 22:44:26 22:48:39 53° 100° (E) 22:52:55 437.425
UWE-3 02 Mar 22:44:48 22:47:36 16° 268° (W) 22:50:10 435.000/436.395/437.385
TISAT 1 02 Mar 22:45:31 22:47:49 15° 67° (ENE) 22:50:18 437.305
QB50P1 02 Mar 23:02:22 23:06:25 45° 99° (E) 23:10:28 145.935-145.965
GONETS M04 02 Mar 23:04:56 23:13:14 47° 285° (WNW) 23:21:29
QB50P2 02 Mar 23:06:13 23:10:21 51° 100° (E) 23:14:27 145.880/145.840
TIGRISAT 02 Mar 23:09:24 23:13:42 80° 284° (WNW) 23:18:02 435.000
BUGSAT 1 02 Mar 23:12:00 23:15:56 41° 98° (E) 23:19:50 437.445
DUCHIFAT 1 02 Mar 23:21:06 23:25:19 76° 102° (ESE) 23:29:30 145.980
ANTELSAT 02 Mar 23:23:12 23:27:24 53° 286° (WNW) 23:31:38 437.575/2403.000
VERMONT LUNAR 02 Mar 23:39:31 23:41:49 16° 214° (SW) 23:44:03 437.305
POLYITAN 1 02 Mar 23:41:36 23:45:46 59° 285° (WNW) 23:49:54 437.675
POPSAT HIP 1 02 Mar 23:42:01 23:46:12 59° 285° (WNW) 23:50:19 437.405
DANDE 02 Mar 23:43:47 23:50:25 44° 96° (E) 23:55:36 436.750
PHONESAT 2.4 02 Mar 23:43:51 23:47:07 31° 209° (SSW) 23:50:21 2401.200-2431.200
AISAT 02 Mar 23:45:12 23:46:40 11° 271° (W) 23:47:50 437.250
CUBEBUG 1 02 Mar 23:45:21 23:49:03 25° 265° (W) 23:52:43 437.445
RS-15 03 Mar 00:00:05 00:11:00 77° 303° (WNW) 00:22:05 29.354- 29.394
SWISSCUBE 03 Mar 00:03:39 00:06:57 20° 67° (ENE) 00:10:26 437.505
NANOSAT C BR1 03 Mar 00:05:29 00:09:15 32° 289° (WNW) 00:12:57 145.865
ESTCUBE 1 03 Mar 00:10:06 00:12:23 13° 270° (W) 00:14:25 437.505/2401.250
BEESAT 03 Mar 00:11:59 00:15:31 22° 68° (ENE) 00:19:12 436.000
CUSAT 1 03 Mar 00:12:29 00:19:06 86° 276° (W) 00:24:04 437.405
SPROUT 03 Mar 00:16:03 00:20:13 45° 261° (W) 00:24:24 437.525
TISAT 1 03 Mar 00:19:12 00:23:19 45° 261° (W) 00:27:26 437.305
UNISAT 6 03 Mar 00:23:06 00:25:05 13° 293° (WNW) 00:26:52 437.425
SO-50 03 Mar 00:34:18 00:37:06 17° 110° (ESE) 00:40:08 436.795
ITUPSAT 1 03 Mar 00:38:30 00:42:55 39° 71° (ENE) 00:47:24 437.325
QB50P1 03 Mar 00:39:39 00:41:59 14° 293° (WNW) 00:44:07 145.935-145.965
QB50P2 03 Mar 00:43:55 00:45:52 13° 294° (WNW) 00:47:37 145.880/145.840
BUGSAT 1 03 Mar 00:48:44 00:51:06 15° 293° (WNW) 00:53:18 437.445
DANDE 03 Mar 01:28:12 01:33:45 25° 284° (WNW) 01:38:07 436.750
Oscar 19 03 Mar 01:30:19 01:35:16 48° 99° (E) 01:40:13 437.125/150
ITAMSAT 1 03 Mar 01:30:56 01:33:43 15° 90° (E) 01:36:45 435.822/435.867
SWISSCUBE 03 Mar 01:40:03 01:44:34 41° 262° (W) 01:49:06 437.505
BEESAT 3 03 Mar 01:41:15 01:44:48 27° 51° (NE) 01:48:19 437.485
BEESAT 03 Mar 01:48:47 01:53:10 36° 262° (W) 01:57:34 436.000
KKS-1 03 Mar 01:54:57 01:59:14 48° 74° (ENE) 02:03:34 437.445
STARS 03 Mar 02:00:54 02:04:55 35° 72° (ENE) 02:08:59 437.465
AIST 2 03 Mar 02:06:38 02:09:34 18° 46° (NE) 02:12:34 435.215
BEESAT 2 03 Mar 02:06:52 02:10:49 42° 55° (NE) 02:14:44 435.950
SO-50 03 Mar 02:12:49 02:17:16 49° 305° (NW) 02:21:53 436.795
RS-15 03 Mar 02:17:07 02:25:42 24° 330° (NNW) 02:34:11 29.354- 29.394
ITUPSAT 1 03 Mar 02:17:31 02:21:01 19° 267° (W) 02:24:22 437.325
JUGNU 03 Mar 02:19:54 02:21:42 11° 172° (S) 02:23:35 437.505
Gurwin Techsat 1B 03 Mar 02:42:40 02:47:55 59° 100° (E) 02:53:09 435.225
YUBILEINY 03 Mar 03:08:02 03:16:41 56° 78° (ENE) 03:25:19 435.215
JAS-2 03 Mar 03:08:10 03:11:33 14° 86° (E) 03:15:34 435.910
ITAMSAT 1 03 Mar 03:08:33 03:13:42 59° 287° (WNW) 03:18:48 435.822/435.867
Oscar 19 03 Mar 03:10:40 03:14:18 19° 294° (WNW) 03:17:46 437.125/150
MOZHAYETS 4 03 Mar 03:10:52 03:13:13 14° 66° (ENE) 03:15:48
BEESAT 3 03 Mar 03:19:24 03:22:49 25° 247° (WSW) 03:26:08 437.485
AO-7 03 Mar 03:23:54 03:30:23 26° 94° (E) 03:37:08 29.400- 29.500
KKS-1 03 Mar 03:33:44 03:36:13 14° 269° (W) 03:38:28 437.445
STARS 03 Mar 03:38:19 03:41:31 19° 267° (W) 03:44:36 437.465
AIST 2 03 Mar 03:44:22 03:48:27 44° 244° (WSW) 03:52:25 435.215
BEESAT 2 03 Mar 03:46:09 03:48:41 15° 250° (WSW) 03:51:03 435.950
HORYU 2 03 Mar 03:51:16 03:55:44 79° 102° (ESE) 04:00:12 437.375
JUGNU 03 Mar 04:07:07 04:09:54 13° 182° (S) 04:12:40 437.505
M-CUBED/EXP-1 PRIME 03 Mar 04:09:36 04:12:47 45° 256° (WSW) 04:16:03 437.505
SRMSAT 03 Mar 04:10:08 04:12:24 12° 173° (S) 04:14:44 437.500
AUBIESAT-1 03 Mar 04:11:10 04:14:22 50° 255° (WSW) 04:17:42 437.475
Gurwin Techsat 1B 03 Mar 04:24:03 04:27:28 17° 295° (WNW) 04:30:40 435.225
RS-15 03 Mar 04:37:52 04:43:51 15° 6° (N) 04:50:04 29.354- 29.394
MOZHAYETS 4 03 Mar 04:45:39 04:50:05 52° 261° (W) 04:54:33
JAS-2 03 Mar 04:50:02 04:57:36 81° 103° (ESE) 05:05:30 435.910
YUBILEINY 03 Mar 05:05:43 05:13:05 29° 275° (W) 05:20:08 435.215
CUBESAT XI-V 03 Mar 05:09:55 05:13:17 21° 68° (ENE) 05:16:49 437.345
AO-7 03 Mar 05:15:36 05:23:47 63° 291° (WNW) 05:31:53 29.400- 29.500
PCSat 03 Mar 05:21:41 05:26:34 34° 54° (NE) 05:31:29 145.827
STRAND 1 03 Mar 05:26:32 05:30:18 22° 67° (ENE) 05:34:13 437.568
PRISM 03 Mar 05:41:33 05:45:29 45° 73° (ENE) 05:49:30 437.425
SRMSAT 03 Mar 05:58:00 06:00:46 13° 183° (S) 06:03:31 437.500
JAS-2 03 Mar 06:36:39 06:41:59 21° 297° (WNW) 06:47:13 435.910
Cubesat XI-IV 03 Mar 06:38:55 06:44:19 76° 102° (ESE) 06:49:40 437.490
CUBESAT XI-V 03 Mar 06:46:10 06:50:31 37° 263° (W) 06:54:53 437.345
CUTE-I 03 Mar 06:47:45 06:53:09 90° 19° (NNE) 06:58:30 437.470
RS-15 03 Mar 06:51:30 07:01:20 33° 39° (NE) 07:11:47 29.354- 29.394
STRAND 1 03 Mar 07:04:21 07:09:15 43° 262° (W) 07:14:08 437.568
PCSat 03 Mar 07:05:11 07:09:57 31° 251° (WSW) 07:14:37 145.827
AIST 1 03 Mar 07:09:13 07:13:31 66° 95° (E) 07:17:53
AO-7 03 Mar 07:11:38 07:15:09 13° 310° (NW) 07:18:11 29.400- 29.500
PRISM 03 Mar 07:19:20 07:21:19 13° 269° (W) 07:23:05 437.425
GONETS M04 03 Mar 07:22:52 07:27:00 15° 60° (ENE) 07:31:47
HO-68 03 Mar 07:56:04 08:00:54 20° 91° (E) 08:06:03 435.675
Cubesat XI-IV 03 Mar 08:21:10 08:23:51 14° 297° (WNW) 08:26:13 437.490
SEEDS 03 Mar 08:25:56 08:28:56 19° 93° (E) 08:32:03 437.485
CANX-2 03 Mar 08:29:38 08:33:18 28° 96° (E) 08:37:01 2200.000
CUTE-I 03 Mar 08:30:52 08:32:33 11° 299° (WNW) 08:33:54 437.470
ISS 03 Mar 08:39:53 08:43:06 77° 139° (SE) 08:46:19 145.825
BRITE-PL 03 Mar 08:44:26 08:48:55 65° 100° (E) 08:53:07 437.365/2234.400
GOMX 1 03 Mar 08:46:11 08:50:17 42° 98° (E) 08:54:15 467.674
CUTE 1.7 + AOD 2 03 Mar 08:47:52 08:51:54 41° 98° (E) 08:55:57 437.475
O/OREOS (USA 219) 03 Mar 08:49:33 08:53:44 38° 105° (ESE) 08:58:00 437.305
DELFI C3 03 Mar 09:00:16 09:01:24 11° 90° (E) 09:02:47 145.870
RS-15 03 Mar 09:03:34 09:15:06 79° 242° (WSW) 09:27:05 29.354- 29.394
SO-50 03 Mar 09:07:08 09:09:28 13° 40° (NE) 09:12:00 436.795
GONETS M04 03 Mar 09:16:47 09:25:35 80° 82° (E) 09:34:24
DOVE 4 03 Mar 09:17:51 09:22:04 67° 101° (E) 09:26:11 437.250
CINEMA 3 03 Mar 09:21:14 09:25:03 35° 97° (E) 09:28:54 145.822/145.860
NANOSAT C BR1 03 Mar 09:22:49 09:24:27 12° 66° (ENE) 09:26:18 145.865
Oscar 11 03 Mar 09:26:36 09:30:28 32° 96° (E) 09:34:22 145.826/435.025
AAUSAT CUBESAT 2 03 Mar 09:29:10 09:33:22 78° 101° (ESE) 09:37:34 437.432
COMPASS 1 03 Mar 09:32:17 09:36:30 83° 283° (WNW) 09:40:42 437.405
CUBEBUG 2 03 Mar 09:37:35 09:41:13 29° 96° (E) 09:44:54 437.445
UNISAT 6 03 Mar 09:41:51 09:45:55 37° 73° (ENE) 09:49:56 437.425
HO-68 03 Mar 09:42:09 09:49:18 70° 288° (WNW) 09:56:25 435.675
DX 1 03 Mar 09:52:11 09:55:54 27° 96° (E) 09:59:40 434.975-435.025
QB50P1 03 Mar 09:53:41 09:57:17 27° 71° (ENE) 10:00:57 145.935-145.965
QB50P2 03 Mar 09:57:36 10:01:22 31° 71° (ENE) 10:05:09 145.880/145.840
AISAT 03 Mar 09:59:55 10:01:58 13° 90° (E) 10:04:15 437.250
BUGSAT 1 03 Mar 10:00:38 10:04:03 24° 70° (ENE) 10:07:34 437.445
SEEDS 03 Mar 10:01:04 10:04:50 31° 288° (WNW) 10:08:33 437.485
50 SAT 03 Mar 10:03:30 10:05:11 13° 91° (E) 10:07:04 437.505
CANX-2 03 Mar 10:05:48 10:09:07 22° 290° (WNW) 10:12:21 2200.000
TIGRISAT 03 Mar 10:06:14 10:10:38 71° 76° (ENE) 10:14:57 435.000
VELOX 1 03 Mar 10:08:31 10:11:16 16° 92° (E) 10:14:11 145.980
DUCHIFAT 1 03 Mar 10:11:44 10:15:47 43° 73° (ENE) 10:19:52 145.980
HUMSAT D 03 Mar 10:12:17 10:15:41 25° 95° (E) 10:19:08 437.325/437.525
FUNcube-1 03 Mar 10:12:31 10:16:33 51° 99° (E) 10:20:38 145.935
ZACube-1 03 Mar 10:13:59 10:18:05 54° 100° (E) 10:22:11 437.345
ISS 03 Mar 10:17:48 10:19:52 16° 336° (NNW) 10:21:55 145.825
ANTELSAT 03 Mar 10:20:13 10:24:38 78° 259° (W) 10:28:59 437.575/2403.000
UKube-1 03 Mar 10:20:27 10:24:44 56° 101° (E) 10:28:59 .
CUTE 1.7 + AOD 2 03 Mar 10:24:58 10:27:32 15° 292° (WNW) 10:29:57 437.475
GOMX 1 03 Mar 10:25:37 10:28:06 15° 294° (WNW) 10:30:22 467.674
BRITE-PL 03 Mar 10:25:51 10:26:52 11° 297° (WNW) 10:27:37 437.365/2234.400
ESTCUBE 1 03 Mar 10:27:22 10:29:18 13° 90° (E) 10:31:29 437.505/2401.250
O/OREOS (USA 219) 03 Mar 10:29:57 10:33:21 20° 303° (WNW) 10:36:39 437.305
POLYITAN 1 03 Mar 10:32:32 10:36:50 80° 77° (ENE) 10:41:08 437.675
POPSAT HIP 1 03 Mar 10:32:41 10:36:58 79° 76° (ENE) 10:41:16 437.405
DELFI C3 03 Mar 10:33:00 10:36:58 49° 285° (WNW) 10:40:55 145.870
UWE-3 03 Mar 10:34:44 10:38:52 66° 285° (WNW) 10:43:00 435.000/436.395/437.385
SO-50 03 Mar 10:45:50 10:50:49 87° 59° (ENE) 10:55:44 436.795
CUSAT 1 03 Mar 10:54:33 10:56:58 34° 78° (ENE) 10:59:30 437.405
NANOSAT C BR1 03 Mar 10:55:43 10:59:55 55° 260° (W) 11:04:07 145.865
CINEMA 3 03 Mar 10:59:23 11:02:03 16° 292° (WNW) 11:04:34 145.822/145.860
Oscar 11 03 Mar 11:03:15 11:06:30 20° 291° (WNW) 11:09:36 145.826/435.025
CUBEBUG 2 03 Mar 11:14:45 11:17:47 19° 291° (WNW) 11:20:44 437.445
GONETS M04 03 Mar 11:15:44 11:21:33 19° 278° (W) 11:26:52
RS-15 03 Mar 11:19:15 11:26:12 17° 259° (WSW) 11:32:16 29.354- 29.394
UNISAT 6 03 Mar 11:19:55 11:22:53 17° 268° (W) 11:25:40 437.425
DX 1 03 Mar 11:28:32 11:32:04 24° 291° (WNW) 11:35:28 434.975-435.025
QB50P1 03 Mar 11:29:44 11:33:11 23° 266° (W) 11:36:31 145.935-145.965
HO-68 03 Mar 11:33:05 11:35:56 12° 305° (NW) 11:38:20 435.675
QB50P2 03 Mar 11:34:06 11:37:20 20° 267° (W) 11:40:28 145.880/145.840
AISAT 03 Mar 11:34:38 11:38:56 49° 287° (WNW) 11:43:11 437.250
CUBEBUG 1 03 Mar 11:35:24 11:39:49 70° 102° (ESE) 11:44:10 437.445
BUGSAT 1 03 Mar 11:35:52 11:39:28 26° 265° (W) 11:43:02 437.445
50 SAT 03 Mar 11:36:43 11:40:27 40° 286° (WNW) 11:44:09 437.505
VELOX 1 03 Mar 11:43:54 11:48:04 40° 288° (WNW) 11:52:11 145.980
HUMSAT D 03 Mar 11:48:08 11:51:24 22° 290° (WNW) 11:54:34 437.325/437.525
DUCHIFAT 1 03 Mar 11:49:29 11:51:54 14° 269° (W) 11:54:07 145.980
FUNcube-1 03 Mar 11:50:48 11:52:32 12° 293° (WNW) 11:54:04 145.935
ZACube-1 03 Mar 11:52:35 11:54:04 11° 293° (WNW) 11:55:19 437.345
UKube-1 03 Mar 11:58:33 12:00:28 12° 295° (WNW) 12:02:10 .
ESTCUBE 1 03 Mar 12:02:08 12:06:36 54° 286° (WNW) 12:11:01 437.505/2401.250
SPROUT 03 Mar 12:04:51 12:08:46 34° 97° (E) 12:12:41 437.525
TISAT 1 03 Mar 12:06:06 12:09:51 31° 97° (E) 12:13:37 437.305
DANDE 03 Mar 12:13:14 12:14:36 13° 267° (W) 12:15:52 436.750
ITUPSAT 1 03 Mar 12:43:14 12:44:50 12° 89° (E) 12:46:45 437.325
Oscar 19 03 Mar 12:45:14 12:50:15 57° 74° (ENE) 12:55:18 437.125/150
ITAMSAT 1 03 Mar 12:46:55 12:50:34 20° 66° (ENE) 12:54:24 435.822/435.867
CUBEBUG 1 03 Mar 13:14:48 13:15:40 10° 296° (WNW) 13:16:16 437.445
ISS 03 Mar 13:34:38 13:35:09 10° 16° (NNE) 13:35:43 145.825
SPROUT 03 Mar 13:41:37 13:44:39 18° 291° (WNW) 13:47:32 437.525
SWISSCUBE 03 Mar 13:42:04 13:46:50 59° 101° (E) 13:51:34 437.505
TISAT 1 03 Mar 13:42:24 13:45:29 20° 291° (WNW) 13:48:28 437.305
BEESAT 03 Mar 13:50:31 13:55:18 66° 102° (ESE) 14:00:04 436.000
KKS-1 03 Mar 13:51:00 13:51:40 10° 89° (E) 13:52:40 437.445
Gurwin Techsat 1B 03 Mar 14:01:47 14:07:04 77° 76° (ENE) 14:12:25 435.225
ITUPSAT 1 03 Mar 14:18:29 14:23:17 64° 285° (WNW) 14:28:02 437.325
YUBILEINY 03 Mar 14:19:02 14:19:14 10° 77° (ENE) 14:20:19 435.215
AO-7 03 Mar 14:20:57 14:27:57 32° 61° (ENE) 14:35:07 29.400- 29.500
ITAMSAT 1 03 Mar 14:24:45 14:29:46 47° 261° (W) 14:34:49 435.822/435.867
Oscar 19 03 Mar 14:27:03 14:30:03 15° 270° (W) 14:32:48 437.125/150
HORYU 2 03 Mar 14:47:45 14:52:05 56° 74° (ENE) 14:56:26 437.375
JAS-2 03 Mar 15:02:04 15:06:27 25° 65° (ENE) 15:11:22 435.910
ISS 03 Mar 15:09:11 15:12:17 41° 35° (NE) 15:15:23 145.825
SWISSCUBE 03 Mar 15:21:36 15:24:16 14° 295° (WNW) 15:26:42 437.505
KKS-1 03 Mar 15:24:26 15:28:50 62° 286° (WNW) 15:33:11 437.445
STARS 03 Mar 15:28:35 15:32:59 87° 289° (WNW) 15:37:23 437.465
BEESAT 03 Mar 15:30:26 15:32:40 13° 296° (WNW) 15:34:38 436.000
Gurwin Techsat 1B 03 Mar 15:45:53 15:47:45 11° 272° (W) 15:49:15 435.225
M-CUBED/EXP-1 PRIME 03 Mar 15:53:15 15:55:37 15° 97° (E) 15:58:17 437.505
AUBIESAT-1 03 Mar 15:54:40 15:56:45 13° 97° (E) 15:59:07 437.475
BEESAT 2 03 Mar 16:01:44 16:03:29 13° 110° (ESE) 16:05:25 435.950
YUBILEINY 03 Mar 16:06:03 16:14:39 69° 93° (E) 16:23:22 435.215
AO-7 03 Mar 16:12:14 16:20:25 56° 258° (WSW) 16:28:33 29.400- 29.500
VERMONT LUNAR 03 Mar 16:22:00 16:24:51 24° 149° (SSE) 16:27:45 437.305
Cubesat XI-IV 03 Mar 16:22:46 16:24:55 13° 62° (ENE) 16:27:22 437.490
HORYU 2 03 Mar 16:27:32 16:29:11 11° 270° (W) 16:30:33 437.375
CUTE-I 03 Mar 16:30:39 16:33:31 15° 64° (ENE) 16:36:38 437.470
PHONESAT 2.4 03 Mar 16:33:39 16:35:48 15° 145° (SE) 16:38:01 2401.200-2431.200
MOZHAYETS 4 03 Mar 16:42:41 16:47:05 42° 98° (E) 16:51:29
JAS-2 03 Mar 16:46:12 16:51:19 41° 264° (W) 16:56:57 435.910
ISS 03 Mar 16:46:17 16:48:30 17° 229° (SW) 16:50:39 145.825
BEESAT 3 03 Mar 17:10:24 17:14:30 86° 301° (WNW) 17:18:39 437.485
AIST 1 03 Mar 17:20:00 17:22:17 14° 70° (ENE) 17:24:45
M-CUBED/EXP-1 PRIME 03 Mar 17:26:33 17:30:44 50° 290° (WNW) 17:35:12 437.505
AUBIESAT-1 03 Mar 17:27:37 17:31:51 55° 290° (WNW) 17:36:21 437.475
BEESAT 2 03 Mar 17:37:15 17:41:15 51° 304° (WNW) 17:45:19 435.950
AIST 2 03 Mar 17:40:16 17:44:26 61° 117° (ESE) 17:48:41 435.215
Cubesat XI-IV 03 Mar 17:59:02 18:04:24 80° 257° (WSW) 18:09:50 437.490
VERMONT LUNAR 03 Mar 17:59:03 18:02:32 83° 344° (NNW) 18:06:03 437.305
YUBILEINY 03 Mar 18:05:28 18:12:22 24° 294° (WNW) 18:18:58 435.215
CUTE-I 03 Mar 18:07:45 18:13:05 68° 258° (WSW) 18:18:28 437.470
PHONESAT 2.4 03 Mar 18:10:16 18:13:53 68° 158° (SSE) 18:17:30 2401.200-2431.200
MOZHAYETS 4 03 Mar 18:20:50 18:24:02 18° 292° (WNW) 18:27:04
HO-68 03 Mar 18:25:34 18:28:23 13° 56° (NE) 18:31:37 435.675
CUBESAT XI-V 03 Mar 18:44:29 18:49:11 63° 100° (E) 18:53:49 437.345
AIST 1 03 Mar 18:56:04 19:00:17 43° 267° (W) 19:04:25
O/OREOS (USA 219) 03 Mar 19:01:09 19:05:39 53° 66° (ENE) 19:10:08 437.305
PRISM 03 Mar 19:01:16 19:05:32 80° 284° (WNW) 19:09:44 437.425
STRAND 1 03 Mar 19:16:31 19:21:41 76° 101° (ESE) 19:26:49 437.568
SEEDS 03 Mar 19:18:25 19:19:36 11° 66° (ENE) 19:21:02 437.485
AIST 2 03 Mar 19:20:58 19:23:30 15° 316° (NW) 19:25:53 435.215
CANX-2 03 Mar 19:21:55 19:24:33 17° 69° (ENE) 19:27:20 2200.000
VERMONT LUNAR 03 Mar 19:37:13 19:40:38 50° 0° (N) 19:44:03 437.305
CUTE 1.7 + AOD 2 03 Mar 19:39:34 19:42:54 24° 71° (ENE) 19:46:20 437.475
PHONESAT 2.4 03 Mar 19:48:51 19:52:26 54° 355° (N) 19:56:00 2401.200-2431.200
GOMX 1 03 Mar 19:51:24 19:56:27 43° 73° (ENE) 20:01:20 467.674
BRITE-PL 03 Mar 19:51:52 19:57:27 65° 76° (ENE) 20:02:51 437.365/2234.400
PCSat 03 Mar 20:01:16 20:06:21 44° 112° (ESE) 20:11:30 145.827
HO-68 03 Mar 20:07:58 20:15:04 74° 72° (ENE) 20:22:14 435.675
AAUSAT CUBESAT 2 03 Mar 20:18:28 20:22:18 39° 73° (ENE) 20:26:12 437.432
Oscar 11 03 Mar 20:20:18 20:23:25 20° 69° (ENE) 20:26:39 145.826/435.025
DOVE 4 03 Mar 20:20:43 20:25:46 58° 75° (ENE) 20:30:37 437.250
CINEMA 3 03 Mar 20:21:03 20:25:10 30° 72° (ENE) 20:29:12 145.822/145.860
COMPASS 1 03 Mar 20:21:48 20:25:49 50° 75° (ENE) 20:29:52 437.405
GONETS M04 03 Mar 20:22:56 20:27:47 17° 81° (E) 20:33:10
CUBESAT XI-V 03 Mar 20:23:58 20:26:09 13° 295° (WNW) 20:28:05 437.345
CUBEBUG 2 03 Mar 20:34:29 20:37:55 22° 70° (ENE) 20:41:23 437.445
O/OREOS (USA 219) 03 Mar 20:42:29 20:44:39 13° 260° (W) 20:46:33 437.305
DX 1 03 Mar 20:46:34 20:49:44 20° 68° (ENE) 20:53:02 434.975-435.025
SEEDS 03 Mar 20:50:53 20:55:00 56° 260° (W) 20:59:07 437.485
CANX-2 03 Mar 20:56:21 21:00:15 36° 263° (W) 21:04:09 2200.000
AISAT 03 Mar 20:57:44 20:58:44 11° 64° (ENE) 20:59:59 437.250
STRAND 1 03 Mar 20:58:01 21:00:19 13° 297° (WNW) 21:02:21 437.568
HUMSAT D 03 Mar 21:03:40 21:06:02 15° 68° (ENE) 21:08:34 437.325/437.525
VELOX 1 03 Mar 21:05:38 21:07:35 13° 66° (ENE) 21:09:46 145.980
